Вернуться в каталог

THORAD AGENA D DEB

АктивенSSO
NORAD 4772·DEBRIS·🇺🇸 United States

Запущен Apr 8, 1970 с Vandenberg Space Force Base

Loading…

Ближайшие Пролёты (ближайшие 24 часа)

TLE

СвежийSource: Space-Track

Эпоха: Sep 14, 2026, 05:46 UTC

1 04772U 70025DS  26257.24044190  .00000231  00000-0  55413-3 0  9997
2 04772  99.7722  47.8982 0180406  77.6673  44.0376 13.27071021713987

Отслеживайте THORAD AGENA D DEB в реальном времени с AllMySat

Download on the App Store